Theta_e
303 303 303 303 304 304 305 305 305 305 306 306 307 308 309 309 309 309 309 309 309 309 309 309 309 309 309 309 308 306 308 309 309 308 308 308 308 308 308 307 306 305 305 306 307 308 309 309 310 309 310 311 312 312 313 312 312 312 313 313 312 313 312 311 311 311 311 311 311 312 311 310 309 309 309 310 309 308 306 305 304 303 303 303 302 302 302 302
302 303 303 304 305 305 306 306 306 306 306 307 307 308 309 309 309 309 309 309 309 310 310 310 310 309 309 310 309 306 308 310 310 309 308 308 309 309 309 308 307 306 306 307 307 308 309 308 308 308 308 310 311 311 312 312 311 312 312 312 312 312 312 311 311 311 310 310 310 311 311 309 308 308 308 309 307 306 306 304 304 303 303 302 302 302 302 301
302 303 304 305 306 306 306 307 307 307 307 307 308 308 309 309 309 309 309 309 309 310 310 310 309 309 309 310 309 307 308 310 310 309 309 308 309 309 309 309 308 308 307 308 308 308 309 308 307 308 308 309 310 310 311 312 311 312 312 312 313 311 311 311 310 309 309 309 310 310 310 308 306 306 307 308 307 304 304 303 303 303 302 302 302 301 301 301
303 304 305 305 306 307 307 307 307 307 307 307 307 308 309 309 309 309 309 309 310 310 310 309 309 308 309 309 308 307 308 311 310 309 309 309 309 309 309 309 309 309 309 309 309 308 308 308 308 308 309 310 310 310 311 311 311 312 312 312 312 311 310 311 309 308 308 308 309 310 310 308 305 304 305 307 306 303 302 302 302 302 301 301 301 301 301 301
303 305 305 306 307 308 308 308 308 308 308 308 308 309 309 310 309 309 309 310 309 309 310 309 309 308 308 307 307 306 308 311 311 308 309 309 309 309 309 308 308 309 309 309 309 308 308 309 309 309 311 312 311 311 312 311 310 312 312 311 311 310 310 310 308 307 307 308 309 309 308 307 305 303 303 304 304 302 301 301 301 300 300 300 300 300 300 300
305 306 307 308 308 308 308 308 309 309 309 309 309 309 310 309 309 309 309 309 308 309 309 309 309 309 308 308 308 309 311 312 309 308 309 309 309 309 309 309 309 309 309 309 309 309 310 310 310 311 312 312 311 312 312 311 311 312 312 311 310 309 310 309 308 307 307 308 308 308 307 305 304 303 302 302 301 300 300 300 300 299 299 298 298 298 298 298
306 307 308 308 308 309 309 309 309 309 309 309 309 309 309 309 310 310 309 308 308 308 309 309 309 309 309 309 311 311 311 310 308 309 310 309 310 309 310 310 310 310 310 310 310 311 310 310 311 311 313 312 311 312 312 311 311 313 312 310 310 309 309 308 307 307 307 307 307 308 307 305 304 302 301 301 300 299 299 299 299 298 298 297 297 297 297 297
307 308 309 309 309 309 309 309 309 309 309 309 309 309 309 309 310 309 308 309 308 308 308 309 309 309 308 310 313 312 309 308 308 309 310 310 310 310 310 310 310 311 309 308 309 311 310 310 311 311 313 312 311 312 312 311 312 313 312 310 310 309 308 307 307 307 307 307 307 307 306 304 303 302 301 300 300 299 298 298 298 298 297 297 296 296 296 296
308 309 309 309 309 309 310 309 309 309 308 309 309 309 309 310 311 310 309 309 308 307 308 308 309 309 309 310 313 312 308 307 308 310 310 310 310 310 310 310 310 311 309 306 307 309 309 309 309 310 312 311 311 313 312 313 313 312 312 310 309 308 307 307 308 308 307 306 307 306 305 304 303 303 301 300 299 299 298 298 298 297 297 297 296 296 296 295
309 309 309 309 309 310 310 309 309 309 308 309 309 309 310 311 311 310 310 309 309 308 308 308 308 309 310 311 312 310 307 306 308 310 309 309 310 309 310 310 310 310 309 306 305 307 307 308 308 308 311 311 311 312 312 313 312 311 311 310 309 307 307 307 308 308 307 306 306 306 304 304 303 304 302 300 299 298 298 298 297 297 297 297 296 296 295 295
309 309 309 309 309 310 310 310 310 309 309 309 309 309 310 311 311 310 310 309 309 308 308 308 308 309 309 309 310 308 306 306 308 310 310 310 310 310 311 311 309 310 310 307 305 305 307 308 308 309 311 312 311 311 311 310 310 311 310 310 308 307 307 308 308 308 307 306 306 305 304 303 303 302 301 299 299 298 298 298 297 297 297 297 296 296 295 295
309 309 309 309 310 310 310 310 310 309 309 309 309 309 310 311 311 310 309 308 308 308 308 308 308 310 310 308 307 306 306 306 308 309 310 311 311 311 311 310 308 308 310 308 305 305 306 307 309 310 311 311 312 312 310 308 309 310 309 310 309 307 307 308 307 307 307 306 306 306 305 304 302 300 299 298 298 298 298 298 297 297 297 297 296 296 296 295
309 309 309 310 310 310 310 310 310 309 309 309 310 310 311 311 310 310 309 309 309 308 308 309 308 309 310 308 306 305 306 306 307 309 310 311 311 311 311 309 308 307 307 307 305 305 306 306 308 309 309 312 313 311 308 307 309 309 309 311 309 308 308 308 307 307 307 307 306 306 306 305 301 299 299 298 298 298 298 298 297 297 296 296 296 296 295 295
309 309 309 310 310 310 310 310 310 309 310 310 310 311 311 311 310 310 310 310 309 309 308 309 310 311 310 308 306 305 306 306 307 309 310 310 311 311 311 309 307 307 306 306 305 306 306 306 308 309 309 311 310 308 308 309 310 310 310 310 308 308 308 309 308 307 307 307 307 306 307 306 301 299 299 297 298 298 298 298 297 297 296 296 296 295 295 294
309 309 309 310 310 310 310 310 310 310 310 310 311 310 310 310 310 310 310 309 309 309 308 308 310 312 310 308 306 305 306 306 307 309 309 310 310 311 310 308 307 307 306 306 306 305 306 307 309 311 310 310 309 309 312 311 310 311 310 309 308 307 307 308 308 307 307 306 307 306 306 306 301 299 298 297 298 298 298 298 297 297 296 296 296 295 295 294
309 310 310 310 310 310 310 310 310 311 311 311 310 310 310 310 309 309 309 309 308 308 308 308 309 310 309 307 306 306 306 306 306 308 309 309 310 311 310 308 309 309 306 306 306 306 307 307 309 311 311 310 309 310 312 309 308 308 308 308 307 306 307 308 307 308 308 306 307 306 305 306 302 299 298 297 297 298 298 298 297 297 296 296 295 295 295 294
310 310 310 310 310 310 310 309 309 310 310 310 310 310 310 310 309 309 309 309 309 308 308 308 309 309 308 307 306 306 306 305 306 308 309 309 310 310 310 309 310 309 308 308 307 307 308 309 310 310 309 308 307 308 308 306 306 307 308 307 306 306 306 307 307 308 308 306 306 306 306 306 301 299 298 297 297 297 298 297 297 296 296 296 295 295 294 294
310 310 310 310 310 310 310 309 308 308 308 308 308 308 309 309 309 309 309 309 309 309 309 309 310 310 308 307 306 306 305 305 305 307 308 309 309 309 309 309 310 309 310 310 308 309 310 310 310 308 307 307 306 307 306 304 305 307 307 306 305 306 307 307 307 308 308 306 305 306 307 306 301 299 298 297 297 297 297 297 296 296 296 295 295 295 294 294
309 310 310 310 310 310 309 308 309 308 308 307 307 307 307 307 307 308 307 307 308 309 309 309 310 309 307 306 305 305 305 305 305 305 307 308 308 308 307 308 309 310 311 310 309 310 311 309 308 307 307 306 305 305 305 304 306 307 307 307 306 307 307 307 305 308 308 305 305 305 306 306 302 299 299 297 297 297 297 297 296 296 295 295 295 294 294 294
309 310 310 311 310 309 309 309 309 309 309 309 308 310 312 310 309 307 306 306 306 307 307 307 308 308 306 305 305 305 306 305 305 305 306 307 307 308 308 309 310 310 310 311 310 311 309 307 306 306 306 305 304 305 305 305 305 306 307 308 307 306 306 305 304 307 307 305 304 304 305 306 304 300 299 298 297 297 297 297 296 296 295 295 295 294 294 294
309 309 309 310 309 309 309 310 310 309 309 309 309 311 312 313 312 309 307 306 305 305 305 305 306 306 306 305 304 305 306 306 306 305 305 306 307 308 309 310 311 310 309 311 311 310 308 306 306 305 305 305 304 304 305 306 307 308 307 305 305 305 304 303 305 307 307 305 304 305 305 306 305 301 299 298 297 297 297 297 296 295 295 295 294 294 294 293
309 309 309 309 309 309 310 310 309 309 309 308 308 308 308 309 310 309 309 308 306 305 305 305 306 306 306 305 304 305 306 306 306 305 305 306 307 308 309 311 311 310 310 311 311 309 307 306 305 305 305 305 305 305 305 307 308 308 306 304 303 303 303 303 306 307 306 305 305 305 305 305 305 302 299 298 298 297 296 296 296 295 295 295 294 294 294 293
309 309 309 309 309 309 309 309 309 309 309 309 309 309 308 307 307 307 309 309 307 306 305 305 305 305 306 305 304 306 305 305 305 304 304 305 306 308 308 309 310 309 310 310 309 308 306 305 305 306 306 305 306 305 304 305 308 307 304 303 302 302 302 302 305 306 305 305 305 305 305 305 305 302 299 298 298 297 296 295 295 295 295 295 294 294 293 293
309 309 309 309 309 309 309 309 309 309 309 309 309 310 309 308 307 307 309 310 310 308 306 306 305 305 305 305 305 306 306 304 304 304 303 304 305 308 307 307 310 310 309 309 309 307 306 305 305 306 306 305 305 305 303 304 306 306 304 302 301 301 302 302 303 304 305 305 305 305 304 305 305 302 300 298 297 296 296 296 296 295 295 294 294 294 294 293
309 309 309 309 309 309 309 309 310 309 309 309 309 310 310 309 309 308 310 312 310 308 308 307 306 305 305 305 305 306 307 305 304 303 303 303 304 307 308 306 308 309 308 310 309 307 306 305 305 307 306 305 304 304 304 303 304 305 304 302 301 301 302 303 303 304 303 304 306 305 302 303 305 303 302 299 296 297 297 296 296 296 295 295 294 294 294 293
309 309 309 309 310 309 310 310 309 309 310 309 309 310 310 310 310 310 312 312 308 307 309 308 307 306 305 305 305 306 308 306 304 303 303 304 303 306 308 307 307 308 307 308 308 306 306 305 305 307 306 303 303 304 304 303 303 304 304 302 302 302 302 303 304 303 302 302 305 305 302 302 303 304 304 300 297 297 297 297 297 296 295 295 294 294 294 293
309 309 309 309 309 310 311 311 309 309 310 310 309 309 310 311 310 310 311 312 308 308 309 308 307 306 305 305 304 307 308 306 306 304 303 304 304 306 308 306 307 308 306 306 307 306 306 306 305 305 304 303 302 302 303 303 303 304 303 302 302 302 302 303 303 303 303 303 304 305 304 303 302 303 304 301 299 298 297 297 297 296 295 294 294 294 293 293
309 309 309 309 309 310 310 309 309 309 309 309 309 309 310 311 311 312 313 309 306 308 308 307 307 304 304 305 305 306 305 304 306 305 304 305 304 305 308 306 306 306 306 307 307 305 306 306 305 305 303 301 301 301 303 303 303 303 302 303 303 303 303 304 303 303 303 303 303 304 303 301 301 302 303 301 299 299 298 297 296 296 295 294 293 293 293 292
309 309 309 309 309 309 309 309 309 309 309 309 309 309 309 308 310 314 313 307 306 308 307 307 307 304 305 307 307 306 305 305 305 305 305 306 305 304 306 305 306 305 306 308 306 304 305 304 305 305 302 301 301 302 303 303 302 302 303 303 304 304 305 305 303 303 303 302 302 303 301 299 299 301 301 301 301 301 299 297 296 295 294 293 293 293 292 291
309 309 309 309 309 309 309 309 309 309 309 309 310 309 308 309 312 313 310 307 308 309 308 307 307 305 305 307 307 307 306 305 305 305 306 306 305 305 305 304 306 306 306 307 306 304 304 303 305 305 302 301 302 302 304 303 303 303 303 302 302 303 303 304 303 302 302 302 302 301 300 300 299 300 301 301 299 299 297 296 295 294 294 293 292 292 291 291
309 309 309 309 309 309 309 309 309 309 308 309 310 309 310 312 313 311 307 307 309 309 308 307 307 306 305 305 305 306 307 306 305 305 306 306 305 306 305 304 305 307 306 306 306 305 305 304 305 304 302 302 303 303 305 304 303 303 301 300 301 301 301 301 302 302 301 300 301 300 299 300 299 300 301 299 296 295 295 294 294 293 293 292 291 291 290 290
309 309 309 309 309 308 309 309 309 309 309 309 309 309 312 312 310 308 307 307 308 308 306 306 307 307 304 303 304 304 304 305 305 305 304 305 305 304 304 303 304 305 304 304 304 305 305 303 303 303 302 302 302 302 303 303 303 302 300 300 300 300 300 300 300 300 299 299 300 299 299 299 299 300 300 298 296 295 294 294 293 293 293 292 290 290 289 288
308 308 308 308 308 308 309 309 309 309 309 309 310 311 313 310 307 307 306 306 307 305 305 305 306 306 304 304 304 303 303 304 304 305 304 305 305 304 304 304 303 304 303 303 302 302 304 303 303 304 303 302 301 300 299 300 301 300 300 299 298 298 299 298 299 299 299 299 299 299 299 299 299 300 299 297 296 295 294 294 293 292 292 290 289 289 288 288
307 307 308 309 309 309 309 309 309 309 307 308 311 313 313 308 306 306 306 305 305 305 306 305 304 305 305 304 303 303 304 304 304 304 305 305 304 303 303 303 303 303 303 304 302 301 302 303 303 303 302 301 301 300 299 300 300 300 300 299 298 298 298 298 298 298 298 298 298 299 299 299 299 299 298 297 296 295 295 294 292 291 290 289 289 288 288 287
306 307 308 309 309 309 309 309 309 308 307 310 313 313 311 307 304 305 305 305 305 305 306 304 303 306 306 305 304 302 303 304 304 304 304 304 303 302 302 302 302 302 303 304 302 300 301 302 304 303 301 300 300 300 301 301 300 300 300 299 298 297 297 298 298 298 298 298 298 298 299 298 299 298 297 296 296 296 295 293 292 290 289 289 288 288 287 286
306 306 307 308 308 308 308 308 308 307 307 312 314 310 307 305 304 304 305 305 304 304 305 305 304 305 305 305 305 304 302 303 304 304 303 302 302 302 302 302 301 301 302 303 301 300 300 301 304 304 302 300 300 301 301 300 299 298 299 298 297 297 297 297 298 298 297 296 297 297 297 297 298 297 296 296 296 295 294 292 291 290 289 288 288 287 286 286
306 306 306 306 307 307 307 307 307 307 309 313 313 307 304 304 302 303 304 304 303 302 305 306 304 304 304 305 305 304 303 304 304 304 303 302 302 302 301 301 301 301 301 301 301 300 299 301 303 303 302 301 300 300 301 300 300 299 298 297 297 298 298 297 296 296 296 295 296 296 296 296 296 296 296 296 295 294 292 291 290 289 289 288 287 286 286 286
306 306 306 306 306 307 307 307 307 308 310 311 309 304 303 304 302 302 303 303 303 303 304 304 304 303 303 304 304 303 303 304 304 304 303 302 302 301 300 301 301 301 301 300 301 301 299 300 302 302 301 301 300 300 300 300 300 299 299 298 297 296 297 297 295 295 295 295 296 296 296 296 295 296 295 294 293 292 290 290 289 288 288 287 286 286 286 285
306 308 307 306 306 307 307 307 308 310 310 310 308 305 304 304 303 302 302 303 304 304 304 303 303 304 303 303 303 302 302 303 303 303 303 301 302 301 300 300 301 301 301 300 301 301 300 300 301 301 301 301 301 299 298 299 300 299 299 298 297 296 296 296 295 295 295 295 296 296 295 295 295 295 294 293 292 291 289 288 288 287 287 286 286 286 285 285
307 309 307 306 306 307 307 307 308 310 309 308 307 305 304 305 303 301 301 302 303 303 303 304 303 303 303 303 303 302 302 303 302 302 302 301 302 301 298 298 299 299 300 301 301 300 300 300 300 300 301 301 300 299 297 297 298 298 298 298 297 296 296 295 295 296 296 295 295 295 294 294 294 294 293 292 291 290 289 288 287 287 287 286 285 285 285 285
308 310 308 306 307 307 308 308 308 307 307 306 305 305 305 305 304 301 300 301 303 302 302 303 304 303 303 303 303 302 302 303 302 302 301 301 301 301 298 296 297 297 299 301 301 299 299 300 299 300 300 300 299 299 297 297 297 297 297 297 296 295 295 295 294 295 294 294 293 293 293 293 294 294 293 291 290 289 288 287 287 287 286 285 285 285 285 285
309 309 307 306 307 307 308 309 307 307 307 305 304 305 305 304 303 302 301 301 302 302 301 302 304 304 303 303 303 303 302 302 302 302 301 300 300 300 298 296 296 297 298 300 300 299 298 299 299 299 299 299 299 297 297 297 297 296 296 296 296 296 295 294 294 294 293 293 293 293 293 293 293 293 292 290 289 288 288 287 286 286 285 285 285 285 285 285
307 307 306 306 307 307 309 309 307 306 305 302 303 303 303 303 303 302 302 302 302 303 303 303 303 303 303 303 303 303 302 301 302 301 300 300 299 298 297 296 297 298 299 299 300 299 299 298 298 298 298 299 299 296 296 297 297 297 296 296 295 295 294 294 294 293 293 293 293 292 291 292 292 292 291 289 289 288 287 286 286 286 285 285 285 284 284 284
306 306 305 306 307 308 310 309 307 305 303 302 303 302 301 302 303 303 303 303 303 303 303 303 302 302 303 302 302 303 302 301 301 300 299 299 299 297 296 296 297 299 298 298 298 299 300 298 297 296 296 298 298 296 296 296 296 296 296 296 295 294 293 293 293 293 292 292 291 291 290 291 290 291 289 288 288 287 287 286 285 285 285 284 284 284 284 284
307 307 305 306 307 308 309 308 307 305 303 303 303 302 302 302 301 301 303 302 301 302 302 302 301 302 302 302 302 302 302 300 300 299 298 298 298 297 297 296 297 298 297 295 294 296 299 299 296 295 295 295 296 296 296 295 295 295 296 296 295 294 293 293 292 291 291 291 290 290 289 289 289 288 288 287 287 286 286 285 285 284 284 284 284 284 284 284
309 309 308 306 305 305 305 304 306 305 303 304 303 302 303 303 301 299 301 302 301 300 302 302 301 301 302 303 303 302 301 300 300 298 297 298 298 297 297 296 296 297 296 295 294 295 299 299 295 294 294 294 295 295 295 295 295 295 295 295 295 294 292 292 291 290 290 290 289 289 289 288 287 287 287 286 286 285 285 285 285 284 284 284 284 284 284 284
309 308 308 308 307 306 305 304 305 305 304 304 304 302 302 303 302 301 301 302 300 300 301 302 302 302 302 302 302 301 301 301 299 297 296 297 297 297 297 297 297 297 296 295 294 294 297 298 296 294 294 294 294 295 295 295 294 294 294 294 294 293 292 291 291 290 290 289 288 288 287 287 286 286 286 286 285 284 284 284 284 284 284 284 284 284 284 284
309 306 304 307 308 307 306 305 305 306 305 304 303 302 302 302 302 302 302 301 300 300 302 302 302 302 302 302 302 300 300 300 300 299 297 296 297 298 298 298 297 297 297 296 294 293 295 297 295 294 294 294 294 295 294 293 293 293 293 293 293 292 291 291 290 289 288 287 287 287 286 286 286 286 286 285 285 284 284 284 284 284 284 284 284 284 284 284
307 305 303 305 305 303 303 302 303 306 306 304 303 303 303 303 302 302 302 302 302 301 302 303 303 302 301 302 301 299 299 299 300 300 298 297 298 298 298 298 298 297 296 295 294 293 295 296 295 293 294 294 295 294 293 292 292 292 292 292 292 291 290 289 288 288 287 287 286 286 285 285 286 286 285 285 285 284 284 284 284 283 283 283 283 283 283 283
307 306 304 304 303 301 300 301 303 307 307 305 305 304 303 303 303 302 302 302 303 303 302 303 303 301 301 302 300 299 298 298 299 299 298 298 299 298 297 298 298 298 296 294 294 294 294 294 294 293 293 295 295 293 292 292 292 292 292 292 290 289 288 288 287 287 286 286 286 285 285 285 286 286 285 284 284 284 284 283 283 283 283 283 283 283 283 283
307 307 306 306 303 301 301 301 303 307 307 305 306 304 304 304 303 303 302 300 301 303 302 303 303 302 302 301 300 299 299 298 299 299 297 298 298 298 297 297 297 297 296 294 294 294 293 293 294 293 293 294 293 292 291 292 291 291 292 291 288 287 287 287 287 286 286 286 285 285 285 285 285 285 284 284 284 284 283 283 283 283 283 283 283 283 283 283
307 306 306 307 304 301 301 303 304 306 305 304 304 304 304 303 302 302 303 301 300 301 301 301 302 302 302 300 299 298 297 297 297 297 297 297 298 297 297 296 295 295 295 294 293 293 293 293 293 293 292 293 292 291 291 292 292 292 291 289 287 286 286 286 286 286 285 285 285 285 285 285 285 284 283 283 283 283 283 283 282 283 283 283 283 283 283 282
Wind_Speed
4 4 4 4 5 5 6 6 6 6 6 5 5 5 5 6 7 7 7 9 9 9 8 7 5 4 4 4 7 9 13 14 11 11 11 12 10 9 9 8 7 6 5 4 5 5 5 5 5 6 7 6 5 3 3 2 2 5 4 4 5 3 4 7 7 6 8 10 10 13 11 9 9 10 9 4 6 10 13 18 16 16 18 18 17 18 20 21
4 4 4 4 5 5 6 6 6 6 5 5 4 4 5 5 6 5 6 7 7 6 5 4 3 2 1 1 5 7 11 11 11 14 15 12 9 10 10 9 8 6 4 4 3 3 3 3 4 5 6 6 4 3 3 2 3 5 4 4 3 4 5 6 7 7 8 10 11 12 8 9 10 10 9 4 10 14 12 15 16 16 19 19 20 21 21 23
5 5 5 5 6 6 6 6 6 5 4 4 3 4 4 4 5 4 5 5 5 5 5 5 4 4 4 2 2 5 6 5 9 15 14 12 10 10 11 9 8 5 3 4 3 2 2 2 4 4 5 5 2 2 3 2 3 3 3 4 2 6 4 6 8 9 8 9 10 10 6 10 12 11 8 3 9 15 13 13 15 17 19 19 20 20 21 23
5 5 5 5 6 6 7 6 5 4 4 4 3 3 3 3 4 4 4 4 5 6 6 5 4 5 4 4 3 5 3 1 8 15 13 11 10 10 12 10 8 5 4 4 4 3 1 1 2 2 4 3 2 2 2 1 2 1 2 3 6 7 4 6 9 9 8 7 8 8 4 8 12 15 13 6 6 10 11 12 13 14 16 18 19 20 20 22
6 6 6 6 6 7 6 5 5 5 5 4 3 3 3 4 5 4 4 5 7 6 5 4 6 7 5 3 3 5 4 3 9 16 12 10 9 11 13 12 9 7 6 5 6 5 4 2 2 2 3 1 2 3 2 2 2 2 2 5 8 7 5 6 8 7 7 7 6 5 5 7 9 15 17 13 9 7 9 10 11 12 14 16 17 18 19 21
7 6 7 7 7 7 6 5 5 5 4 3 3 4 5 7 6 6 6 7 9 8 5 5 7 12 13 11 11 7 1 1 12 17 11 10 9 11 13 14 13 10 10 9 7 6 5 3 3 1 1 2 2 1 3 3 3 2 4 6 6 6 4 4 6 6 7 8 7 5 8 9 11 12 15 16 13 8 7 8 8 10 12 13 15 17 19 21
7 7 8 8 7 6 6 5 4 4 4 4 5 7 8 8 7 7 8 11 13 12 8 5 8 11 13 14 15 13 10 7 15 15 10 10 9 11 12 14 14 13 13 10 8 6 6 6 2 1 0 3 3 3 3 1 2 2 3 5 4 3 3 3 3 4 6 8 8 6 8 9 11 10 11 14 12 8 7 7 7 8 10 12 15 17 19 20
8 9 9 8 7 6 5 4 4 4 4 5 7 9 9 8 7 8 9 11 14 16 11 4 5 4 6 7 6 10 14 14 16 14 10 9 10 10 11 13 14 14 14 12 11 7 7 9 6 3 1 3 3 3 2 1 1 2 3 3 2 1 2 2 2 5 6 7 8 10 10 10 13 13 12 12 9 8 7 6 7 8 9 12 15 17 18 19
9 9 8 7 6 5 4 4 4 4 5 7 9 9 8 7 7 6 7 8 12 17 17 10 5 4 7 4 1 6 14 16 16 14 10 9 9 10 11 12 12 12 12 14 14 9 7 8 6 3 2 4 2 1 0 2 1 3 2 0 2 3 3 2 3 6 6 6 7 9 10 10 10 9 9 10 7 6 6 6 7 7 9 11 14 15 17 18
10 9 7 6 5 4 4 4 4 5 6 8 8 8 7 7 7 6 5 5 7 12 17 16 14 13 12 7 4 6 13 16 14 12 10 9 8 9 10 9 11 10 10 14 15 12 10 9 5 1 3 3 1 3 2 3 2 2 1 2 4 5 4 3 3 6 7 5 4 6 8 7 3 1 4 8 6 5 5 6 7 6 9 10 12 14 16 18
10 8 6 4 4 4 5 4 4 5 6 7 6 6 6 6 6 6 6 7 7 8 12 15 17 18 17 17 15 9 15 16 12 11 10 10 8 8 8 9 11 9 8 12 16 13 9 11 8 2 3 3 3 4 3 2 1 2 3 4 6 4 3 3 4 3 5 4 3 6 8 6 5 3 3 5 4 3 4 5 6 7 8 9 10 13 15 17
9 7 5 3 4 5 6 7 6 5 5 5 5 5 5 6 6 6 7 8 9 9 12 14 15 15 14 22 22 13 16 14 10 10 10 9 8 6 8 9 10 10 8 8 13 15 12 13 10 2 3 3 3 2 4 3 0 3 4 5 7 7 2 3 5 2 3 3 3 5 5 4 5 5 4 4 2 2 3 5 6 6 8 8 9 10 13 15
8 5 4 4 5 6 7 8 7 6 6 5 5 4 5 6 6 5 4 5 6 6 7 8 13 16 12 15 20 18 17 16 11 7 7 8 7 6 7 8 10 10 8 6 8 12 15 17 13 8 6 1 1 2 2 3 1 3 4 4 3 6 3 3 5 5 2 3 2 4 4 2 7 6 5 3 2 2 3 5 6 6 7 8 9 9 11 14
6 4 4 5 6 7 7 6 6 6 5 5 4 4 5 7 7 5 4 5 6 6 7 6 7 12 13 11 16 23 21 18 13 5 4 8 8 6 6 7 10 10 7 6 5 6 11 16 14 11 9 5 1 3 2 2 3 0 2 2 3 2 1 4 3 7 3 2 2 5 6 1 7 5 5 3 2 2 2 4 5 6 7 7 9 10 11 13
5 5 6 7 7 7 6 5 5 5 4 4 5 6 8 8 8 7 7 8 8 7 9 11 8 6 10 10 14 23 23 20 16 10 8 9 7 5 4 7 10 10 9 7 5 4 7 12 11 8 9 5 2 3 4 3 2 3 2 2 5 5 6 3 4 4 6 5 6 5 5 1 7 6 5 4 2 2 2 4 5 6 7 7 8 9 10 12
6 7 8 8 7 7 7 7 7 7 6 5 6 8 9 9 10 9 11 13 14 12 10 12 13 10 8 9 14 20 24 23 18 12 12 12 6 3 3 5 5 8 9 8 8 7 7 8 7 9 12 7 3 4 3 1 3 5 5 5 7 7 8 5 3 3 7 10 7 3 4 1 6 7 6 4 2 3 2 3 4 5 6 7 7 9 10 11
7 8 7 6 6 7 8 10 12 13 13 12 10 8 7 7 8 9 9 8 9 14 15 12 10 12 11 12 14 17 21 23 18 10 9 11 8 4 2 1 2 4 6 7 9 7 5 5 3 6 11 10 9 8 3 4 7 5 6 6 8 9 9 8 3 3 8 11 9 6 5 1 6 8 7 5 3 3 2 2 3 3 5 6 7 8 9 11
6 5 4 4 6 6 10 15 19 21 23 23 23 20 16 12 9 8 6 5 7 11 16 15 7 7 9 14 15 13 16 22 22 15 9 9 9 6 5 2 4 4 3 3 9 8 4 6 5 4 8 9 10 9 6 5 7 6 7 6 7 9 9 10 9 6 9 11 12 10 7 1 7 8 7 7 5 4 3 2 2 3 4 5 6 7 9 10
4 3 4 4 5 10 16 18 17 18 20 22 24 25 24 24 22 21 22 23 20 12 9 13 11 4 4 15 14 9 11 21 24 20 10 4 6 7 7 5 2 3 3 1 9 11 6 7 8 7 8 9 9 8 5 5 7 7 7 6 7 10 8 11 13 7 8 10 12 11 9 4 6 8 8 8 6 5 4 3 2 2 3 4 5 7 8 9
4 5 5 5 9 15 16 12 10 10 10 11 12 11 10 13 15 20 31 35 28 18 12 12 11 7 7 16 17 11 11 16 20 23 15 5 5 6 6 4 1 4 4 1 6 9 8 8 8 7 7 7 7 6 6 5 5 6 7 6 8 10 8 13 14 4 6 8 11 12 12 8 6 8 8 9 8 6 5 4 3 2 3 4 5 7 8 9
8 9 9 11 15 15 10 9 9 8 7 8 8 7 6 6 7 10 20 25 22 22 22 20 15 10 11 17 21 18 13 10 16 26 21 12 8 5 6 5 0 4 5 1 0 6 9 9 7 7 6 6 5 5 7 6 5 5 5 7 8 9 10 16 12 1 3 4 10 15 11 9 7 9 10 10 10 7 5 3 2 2 3 4 5 6 8 10
12 13 14 15 14 11 8 9 10 10 10 11 12 16 16 14 15 15 15 13 14 19 20 21 19 14 13 16 19 20 15 11 17 28 25 18 14 8 7 7 4 5 5 1 2 4 8 8 7 7 6 6 5 5 9 7 6 4 4 7 7 9 12 13 5 1 3 4 10 14 9 10 8 10 10 10 9 7 6 3 2 2 3 4 6 7 9 11
15 14 15 14 11 8 8 8 8 7 8 9 10 13 14 13 14 14 13 9 10 16 15 15 18 19 16 14 16 18 19 15 17 27 28 21 15 10 9 8 6 6 8 8 4 4 6 6 7 6 6 7 4 6 13 9 4 2 4 7 7 11 12 10 5 5 10 10 12 13 9 11 7 9 9 10 10 7 6 4 2 1 3 5 7 8 10 13
13 12 12 10 9 7 6 6 5 3 4 5 5 5 6 7 8 9 8 5 6 11 13 13 16 21 20 16 16 13 14 17 16 23 27 23 15 8 7 7 4 5 7 7 7 9 7 4 6 6 6 6 5 8 12 9 5 1 4 7 9 14 15 13 13 13 14 10 7 7 9 8 6 12 9 9 9 7 7 5 2 1 3 5 7 9 10 14
10 10 10 8 7 6 5 4 3 2 3 4 5 3 3 4 4 5 2 2 4 8 12 11 11 18 21 19 17 7 5 13 18 23 24 22 18 7 3 5 4 5 5 5 3 7 6 3 4 6 4 6 7 6 8 7 8 1 3 9 14 18 18 18 16 13 11 5 3 3 8 7 4 12 11 9 9 9 7 5 1 3 5 7 9 11 14 17
7 8 9 8 6 5 4 3 2 2 4 5 5 4 1 3 3 4 3 2 3 7 10 10 8 14 18 19 19 6 2 8 14 23 24 18 17 9 3 4 3 4 5 5 2 3 4 1 4 6 6 9 8 5 6 6 8 4 5 12 16 18 18 18 16 10 7 7 3 5 5 8 6 6 9 11 10 9 8 4 0 4 6 9 12 14 17 20
5 6 7 8 7 5 2 2 3 3 4 5 5 4 1 1 3 4 3 2 3 5 8 9 7 11 14 16 22 7 1 9 9 17 24 17 15 10 5 5 3 4 3 2 1 2 3 4 4 8 9 9 8 7 8 7 6 5 9 15 18 18 18 17 13 8 7 9 8 6 6 9 10 5 8 12 9 10 9 4 0 4 7 11 15 16 18 23
2 3 4 6 6 4 3 3 5 5 5 5 5 4 2 1 3 3 3 1 4 5 6 7 5 11 12 11 20 12 4 12 8 12 22 18 15 8 4 6 3 4 4 2 1 2 3 5 6 9 9 8 8 8 7 6 5 7 12 16 17 18 18 15 10 8 8 8 6 2 3 8 10 6 5 11 9 10 8 3 1 4 9 14 17 19 23 29
1 1 2 4 4 5 5 4 6 6 5 5 4 4 3 0 4 3 3 0 4 3 3 6 5 12 16 9 13 14 9 10 7 12 19 16 16 9 2 4 3 3 4 3 3 2 2 3 3 6 7 7 9 10 5 5 5 10 15 16 16 15 15 12 7 8 8 7 7 10 12 9 9 11 6 5 7 6 5 2 2 7 12 16 19 22 27 31
3 4 5 6 6 7 8 7 7 6 5 4 3 2 3 2 3 3 1 1 3 3 3 7 5 10 17 9 8 12 10 7 8 12 13 11 15 13 3 0 2 4 2 5 6 3 2 1 2 2 5 6 10 10 5 5 7 12 15 14 13 11 8 6 6 6 7 7 8 15 18 14 9 11 9 1 1 2 3 2 5 10 15 18 20 24 30 32
5 7 8 9 9 10 9 8 8 7 5 4 2 1 1 1 1 1 3 2 2 4 4 5 5 7 12 6 5 11 8 6 10 12 11 9 12 18 10 2 4 3 1 4 4 3 4 4 2 3 2 7 10 10 4 6 9 10 10 12 11 8 4 3 3 5 6 8 11 17 21 17 11 10 4 4 5 6 5 5 7 11 17 22 24 27 30 32
7 9 10 11 11 10 8 8 7 6 4 4 4 3 3 1 3 2 2 2 3 3 4 3 4 7 7 3 3 9 5 4 10 8 7 7 7 12 11 6 6 4 2 6 5 3 3 4 3 4 0 8 8 8 3 3 6 8 9 10 9 8 6 4 5 6 7 11 14 19 21 14 10 8 4 5 6 7 5 6 9 15 22 25 27 28 31 35
9 9 9 9 9 7 6 6 4 3 3 2 4 3 3 0 4 2 1 3 2 3 3 2 5 7 6 4 5 7 2 2 8 4 2 5 5 5 7 9 9 5 3 6 7 7 1 5 4 3 1 6 7 7 6 5 7 8 7 9 8 7 7 7 8 7 8 13 16 20 17 10 9 7 3 5 5 6 4 6 13 20 25 29 31 32 36 41
7 7 5 4 3 1 2 3 3 2 2 3 3 2 1 3 3 1 1 3 2 3 2 2 6 6 3 1 4 5 2 2 5 5 3 5 5 5 5 9 11 7 4 5 3 5 6 1 2 2 2 6 6 3 4 7 7 4 5 6 6 6 6 7 7 8 11 14 17 18 11 7 9 5 4 6 6 5 2 11 21 27 32 35 34 36 41 44
7 7 5 3 4 4 3 3 3 3 5 5 2 1 4 3 1 1 1 2 2 3 3 1 4 5 0 2 1 2 2 2 3 4 5 5 5 5 5 6 11 9 4 4 2 3 9 5 3 3 1 5 7 1 2 7 5 3 5 4 6 7 6 7 8 10 14 13 12 10 6 8 9 3 6 5 3 1 9 20 28 32 35 37 35 38 45 47
8 7 5 3 4 5 5 5 6 6 5 3 1 5 4 2 1 2 2 2 2 4 5 2 2 4 4 2 1 4 3 1 3 3 3 5 5 6 5 4 7 8 5 4 3 2 6 7 3 1 2 3 5 0 1 4 4 5 5 5 8 9 6 6 9 11 13 12 9 9 9 10 10 3 5 3 3 8 16 25 31 34 36 37 38 44 49 50
10 12 10 9 9 9 8 8 8 7 5 2 4 5 3 2 3 3 3 2 2 3 5 2 2 4 5 4 4 8 6 2 4 5 1 3 2 5 7 4 3 6 6 3 2 2 3 9 9 4 1 3 4 2 1 0 3 6 4 6 9 7 4 3 8 9 10 11 9 10 13 13 12 8 2 5 13 16 20 24 30 35 37 38 43 48 49 48
11 14 15 12 11 10 9 8 7 9 12 9 6 5 1 2 2 2 2 2 2 2 3 3 3 2 3 4 4 6 8 5 5 6 3 3 2 4 7 4 3 7 7 3 3 2 2 7 4 2 3 3 4 2 1 2 0 3 1 3 4 3 3 5 7 8 10 13 10 12 16 13 10 10 9 14 18 20 23 25 26 31 35 39 46 50 48 47
7 11 13 14 12 9 7 6 10 13 13 8 4 3 2 2 3 2 2 2 3 2 2 3 2 1 2 4 4 4 4 4 5 5 3 4 3 5 6 4 4 9 9 4 4 4 3 5 1 0 7 9 3 2 5 3 2 2 3 1 3 2 5 5 6 7 9 13 13 14 15 10 9 10 9 14 19 23 27 27 25 29 36 44 48 49 49 48
4 6 9 15 20 17 12 15 20 17 9 5 4 3 2 2 3 2 2 2 2 3 3 2 2 2 2 2 2 3 3 3 4 4 4 5 4 4 8 7 6 10 11 6 4 4 3 4 5 7 10 10 4 3 6 7 4 2 4 4 4 3 5 5 6 6 7 11 12 14 14 10 9 8 8 17 23 26 31 28 25 31 42 48 50 49 50 49
7 5 5 9 11 7 10 19 20 12 4 4 5 3 2 2 3 2 3 3 2 3 3 2 2 3 3 2 1 2 4 3 3 3 3 5 5 4 7 8 6 9 10 6 2 3 4 4 7 9 9 8 5 3 2 4 4 5 6 4 3 4 6 7 8 5 6 10 11 13 15 11 6 4 10 20 24 28 35 31 27 36 47 50 50 50 50 49
9 4 3 7 6 3 10 15 10 5 3 4 4 4 3 2 2 2 2 2 1 2 1 1 2 2 2 3 2 2 4 3 3 4 3 5 6 5 6 8 7 6 5 4 3 2 2 4 6 8 8 7 4 4 4 2 3 3 1 1 2 3 4 6 9 9 9 11 13 13 15 12 6 8 15 24 29 35 38 34 34 42 49 51 51 50 49 48
11 6 4 6 6 9 14 10 4 4 6 3 3 5 4 3 3 2 1 1 1 1 1 1 1 1 2 3 3 3 5 3 2 3 3 4 5 4 7 9 7 5 4 4 4 3 2 3 6 8 7 4 3 5 4 2 3 3 1 1 2 2 2 4 8 10 9 11 12 11 13 12 9 14 23 32 40 40 36 36 41 46 48 50 50 50 50 49
16 15 13 8 3 6 7 4 3 5 4 3 4 5 4 4 4 2 2 2 2 1 2 1 1 2 2 2 3 3 5 3 2 3 3 3 3 3 7 9 7 6 5 2 4 6 4 3 7 9 8 7 4 2 2 2 4 7 7 5 4 4 2 5 8 9 9 11 13 13 13 14 13 19 28 34 37 33 33 41 48 48 49 50 50 51 52 50
11 13 18 16 10 9 8 5 5 5 4 5 5 3 2 4 4 4 4 3 3 2 2 1 1 2 2 1 2 1 3 2 1 2 1 2 2 1 5 9 7 6 5 3 5 6 4 3 5 6 7 9 9 7 8 9 8 8 10 10 5 3 2 6 9 9 9 13 15 12 14 19 24 27 30 30 27 26 34 46 51 50 50 52 52 53 52 51
4 4 8 13 15 16 14 11 8 6 5 4 3 2 1 2 3 4 3 2 2 2 2 2 1 2 2 2 2 1 2 2 1 1 1 1 2 2 3 7 7 4 5 8 8 4 3 2 5 6 6 7 9 12 14 13 12 11 13 15 11 2 3 4 8 9 12 16 15 13 17 27 30 30 29 26 24 26 33 43 49 51 51 52 53 53 52 51
4 2 2 3 9 12 11 9 7 4 3 1 1 2 2 3 3 1 2 2 2 1 1 1 2 2 2 4 3 2 5 2 2 2 1 1 1 2 1 5 6 4 4 8 11 6 3 1 5 6 8 10 13 17 17 14 14 15 15 14 13 6 2 4 8 11 15 15 15 19 27 31 30 31 29 24 25 28 32 41 48 51 52 52 52 52 53 52
4 4 3 2 3 3 3 5 5 5 5 3 2 2 2 3 2 1 1 1 1 1 1 1 4 4 3 4 3 3 7 4 1 2 2 0 1 2 2 1 4 7 5 6 10 6 2 1 4 4 10 13 15 16 15 14 13 15 14 12 11 10 9 9 11 14 14 14 18 27 34 33 29 29 25 25 31 35 38 45 50 51 52 52 52 54 53 51
9 8 6 5 5 4 4 5 5 5 5 3 2 2 2 3 3 1 1 1 1 0 2 1 3 3 0 2 3 2 4 4 2 0 2 1 1 1 1 2 2 8 8 5 6 5 2 1 3 5 11 14 13 12 15 15 13 13 10 6 7 10 11 12 14 15 16 17 22 29 34 32 25 22 24 32 43 45 46 50 51 50 52 53 55 56 53 50
9 7 7 10 10 7 5 4 2 2 3 2 2 2 2 2 3 1 0 2 1 2 3 3 3 1 1 1 2 1 2 5 5 3 1 1 1 1 2 2 2 6 7 4 4 5 5 4 2 4 8 10 10 14 18 15 12 11 6 2 8 13 12 12 14 16 17 20 24 28 30 24 19 24 34 42 47 46 46 48 49 50 54 57 58 56 52 49
9 10 13 14 8 4 4 3 2 0 2 3 2 1 1 2 2 0 1 1 1 2 3 3 2 0 2 2 1 2 3 6 5 3 3 3 3 3 3 4 3 3 4 3 2 4 6 5 4 3 5 7 11 18 22 17 9 5 3 4 10 13 14 14 14 15 18 23 26 27 22 15 17 31 40 43 45 44 43 46 47 51 56 58 56 53 51 50
11 12 11 9 5 3 3 2 2 1 2 3 3 2 1 2 1 1 1 1 1 1 2 3 4 3 2 2 2 4 4 3 2 3 4 5 7 9 8 7 6 3 3 2 1 3 5 5 5 5 5 8 12 18 21 16 6 1 1 6 12 15 18 18 17 18 21 22 21 19 17 17 26 34 35 35 37 38 41 45 48 49 52 52 49 48 48 51
Wind_Direction
135 111 94 90 83 79 73 70 70 69 71 67 59 50 41 27 16 17 29 32 37 43 49 56 62 72 81 81 85 86 77 69 58 55 52 37 24 9 359 346 329 321 318 310 317 326 304 273 259 272 270 247 242 246 232 243 255 251 253 257 277 315 5 10 359 353 334 320 329 334 344 350 353 15 355 335 53 37 45 45 34 36 35 28 23 15 15 16
134 116 102 95 87 80 75 74 72 69 64 58 51 42 37 24 19 28 36 35 33 27 25 24 14 19 358 62 103 106 83 68 45 37 34 23 10 8 4 352 341 335 336 334 338 338 307 279 267 270 258 234 217 235 237 208 231 250 271 263 294 17 32 25 6 356 339 322 324 330 356 29 15 7 347 354 53 40 38 34 25 29 28 23 21 19 21 22
130 116 105 97 91 84 81 76 71 67 55 54 48 36 32 24 31 45 45 33 10 354 352 347 339 336 302 299 146 135 94 66 31 18 9 9 11 11 6 357 351 344 351 358 359 343 305 274 268 269 247 231 191 228 223 186 241 247 274 269 29 20 24 47 15 359 349 332 331 334 17 56 36 19 1 5 57 47 37 24 19 23 18 16 18 18 20 23
126 116 107 100 93 87 83 76 67 56 40 36 34 34 36 46 63 70 53 19 353 347 347 348 358 353 317 298 228 172 175 201 24 3 349 3 13 14 13 7 4 8 8 7 12 9 9 307 291 276 240 220 128 204 192 130 291 253 284 325 33 2 352 44 18 9 3 339 336 339 20 74 54 39 32 33 60 51 37 26 21 21 17 14 16 17 20 23
125 119 111 104 97 92 84 71 55 38 34 35 40 53 65 84 90 77 51 25 12 5 9 36 44 33 16 344 170 162 217 219 14 352 344 5 17 23 24 26 28 30 26 31 33 26 31 337 265 239 236 167 135 201 115 77 289 274 50 39 34 358 345 31 22 25 8 348 354 15 58 78 67 51 45 51 64 52 32 27 25 23 22 19 19 21 23 25
128 120 114 108 101 92 76 59 47 42 50 57 73 83 100 105 96 77 64 50 39 29 47 93 84 68 65 74 93 90 79 35 358 346 355 12 22 32 36 38 34 37 38 39 28 13 14 313 240 221 223 114 62 41 77 73 283 276 84 66 35 2 347 15 30 39 18 23 40 70 91 91 88 70 56 61 66 59 41 30 29 29 29 28 29 29 29 30
127 120 115 109 99 84 70 62 59 67 73 82 97 103 108 102 88 85 75 59 48 39 53 123 120 84 70 74 82 72 60 29 355 355 10 17 30 34 37 38 34 41 41 37 24 10 17 1 1 345 236 108 39 34 67 71 299 299 85 56 23 3 347 2 43 65 45 48 64 103 114 98 95 88 70 68 64 56 47 38 40 39 38 37 37 36 34 33
125 120 115 105 94 84 78 76 76 81 82 94 108 107 104 96 93 96 82 63 51 45 48 105 138 85 45 55 78 63 42 10 0 15 20 19 31 27 30 33 33 39 36 39 32 18 22 18 22 324 309 81 25 31 60 216 212 30 66 37 23 55 7 18 108 108 74 72 98 110 112 103 99 95 76 67 59 50 46 46 50 49 48 44 41 38 35 34
125 120 114 106 97 88 81 77 82 90 93 102 107 105 102 97 96 94 82 64 55 56 57 72 106 55 31 21 304 45 24 1 3 19 20 22 25 20 27 27 33 40 32 39 36 31 38 19 11 343 47 74 22 52 252 247 103 68 75 135 132 100 49 58 123 129 95 85 125 121 119 120 111 104 77 60 46 45 48 51 55 53 50 45 41 38 34 33
125 120 114 107 94 82 74 73 89 94 96 106 108 106 102 93 88 81 71 59 63 67 62 69 80 63 43 33 62 50 12 2 4 14 20 21 22 22 24 22 37 43 31 35 32 36 42 17 10 77 102 98 70 68 309 296 66 102 159 174 147 109 79 87 102 132 121 94 139 136 123 119 93 158 86 59 38 41 51 54 53 49 47 43 42 38 34 32
125 121 115 103 87 78 70 70 83 92 100 110 112 104 94 87 81 76 75 72 77 74 62 66 74 69 55 50 63 43 8 7 3 12 17 12 18 25 25 27 39 48 40 33 31 38 42 27 30 138 128 113 131 82 31 7 81 152 167 179 182 162 86 98 87 119 155 114 137 147 126 114 69 62 79 45 22 47 53 55 52 46 45 41 41 38 35 32
128 124 112 94 83 75 68 68 73 91 104 109 110 103 95 92 88 91 95 86 80 76 66 56 60 70 59 50 51 26 13 19 4 8 11 6 17 29 33 35 40 51 50 36 39 44 50 47 39 71 116 111 151 116 51 40 226 188 191 202 193 200 212 100 77 43 218 125 126 180 167 141 97 78 79 46 33 78 63 58 51 47 45 40 40 37 35 32
131 123 104 85 80 74 68 67 76 94 103 109 113 111 105 98 96 102 100 76 62 61 53 38 51 61 59 51 41 25 25 30 19 4 359 8 28 42 40 42 42 46 47 42 50 49 55 61 54 63 79 60 178 146 71 61 212 203 220 244 203 206 208 101 58 357 255 112 88 225 251 147 108 89 86 63 59 109 84 66 54 50 49 42 41 36 36 33
128 111 88 81 81 77 69 69 82 95 105 111 110 110 107 100 98 94 71 51 45 47 37 32 57 55 58 62 34 28 30 28 29 30 5 19 39 45 36 54 51 39 35 34 45 50 52 54 49 53 48 20 127 175 205 166 195 202 240 269 3 310 1 88 65 359 6 73 344 272 280 143 122 111 98 82 100 130 96 72 58 52 48 42 42 37 37 34
115 94 81 85 86 81 75 72 76 86 95 94 97 106 103 99 94 79 67 60 55 65 59 58 80 73 59 57 27 24 27 25 27 32 25 20 34 50 50 74 60 38 34 35 39 42 46 46 40 41 31 21 156 221 235 184 162 31 3 322 7 351 340 25 118 39 9 340 320 304 300 137 132 129 115 108 135 151 114 78 61 51 46 40 39 33 32 30
102 90 88 89 88 86 74 65 68 73 73 76 93 102 97 94 93 92 92 79 63 62 71 72 78 82 62 41 28 22 21 22 20 22 22 18 29 71 84 93 64 33 30 34 38 37 41 42 41 46 35 23 356 322 253 150 25 23 10 352 357 344 327 339 121 93 2 338 326 321 305 312 134 136 129 127 147 168 146 87 62 52 44 35 34 29 24 20
100 93 89 85 86 84 76 81 89 88 84 83 86 89 96 100 102 105 102 84 55 46 58 74 81 83 66 33 24 12 10 20 23 26 25 24 37 62 83 183 301 357 9 17 23 17 15 5 356 47 39 33 17 4 23 21 358 355 359 353 346 336 324 333 356 41 4 338 323 306 284 323 123 141 144 144 157 172 156 101 73 54 43 34 30 23 19 16
100 81 66 76 81 85 99 105 102 97 93 90 88 87 88 90 99 109 98 77 60 44 51 55 54 94 60 13 3 354 5 25 27 24 19 24 43 54 47 359 288 297 292 359 20 6 1 18 27 51 36 31 27 23 37 10 333 326 338 336 335 330 323 329 332 359 7 336 317 306 283 206 138 156 160 158 168 166 151 122 93 57 45 35 27 20 16 14
80 52 60 78 90 107 114 109 101 100 98 96 95 89 82 81 81 79 74 70 65 55 45 35 30 83 33 359 359 353 18 33 27 20 16 11 34 40 29 22 15 340 293 42 37 22 18 38 40 37 25 17 22 25 17 335 312 309 306 298 313 319 319 326 327 355 12 330 309 309 300 275 175 174 170 166 174 167 157 139 106 62 43 29 20 20 11 7
71 75 83 90 113 121 115 96 93 104 105 110 108 92 78 76 70 64 64 65 64 64 62 46 43 64 36 15 20 24 30 36 27 21 24 20 15 25 11 354 81 48 41 43 36 32 31 52 47 22 12 4 7 5 339 317 306 295 287 294 311 316 321 322 321 2 37 335 305 305 302 281 217 183 176 173 181 179 167 154 113 59 38 27 12 12 5 1
93 93 94 106 124 125 100 75 86 91 99 119 111 91 88 82 81 76 68 64 62 60 57 50 48 45 31 25 29 32 29 26 21 19 26 33 19 12 1 349 162 65 50 286 14 55 43 56 48 12 359 344 339 326 316 304 290 281 298 323 325 325 322 313 311 8 36 336 296 300 295 270 232 187 179 179 188 186 168 161 122 60 32 21 5 2 356 352
105 101 101 111 125 118 87 86 86 80 92 104 96 90 90 88 90 93 90 80 57 50 49 45 42 31 24 25 28 33 28 12 10 14 21 29 27 29 10 15 66 51 28 322 201 85 53 57 34 1 343 315 286 306 329 316 277 264 325 339 331 330 322 310 305 150 310 293 288 298 294 279 246 183 182 188 189 181 164 159 119 60 17 10 358 353 347 346
109 104 105 110 119 109 96 95 77 74 92 93 87 89 92 92 92 91 95 102 64 44 39 39 37 25 18 17 19 32 37 26 7 4 12 20 26 33 16 18 59 49 34 31 43 68 56 53 15 343 317 311 304 357 356 337 284 248 357 350 327 328 327 311 309 298 292 282 284 295 288 280 245 176 189 192 183 176 168 169 134 66 12 5 351 346 344 342
112 103 103 104 111 107 98 92 70 73 81 61 58 83 115 107 106 107 91 105 88 40 24 30 31 21 14 7 7 26 45 39 18 2 9 17 15 22 22 10 25 53 44 23 55 82 68 42 354 313 277 306 334 12 8 347 323 75 44 359 324 319 318 301 302 306 297 277 260 279 283 277 195 179 197 186 183 185 178 184 163 52 6 358 348 344 341 337
112 99 95 92 103 102 94 90 73 73 44 24 28 44 156 155 152 153 129 136 94 20 6 22 24 12 7 3 3 14 66 42 24 8 9 16 13 14 35 6 354 41 33 350 54 88 61 40 327 307 295 339 352 8 14 345 325 341 67 358 323 312 311 300 303 309 304 292 171 205 288 301 187 195 197 171 183 193 182 187 201 2 1 358 349 342 338 334
109 94 85 75 84 91 87 71 45 42 18 13 16 15 128 169 184 179 227 212 69 5 352 7 12 7 5 3 1 349 152 32 17 13 13 17 20 18 3 10 23 36 14 348 28 89 44 28 284 313 345 6 9 9 15 353 322 322 18 344 315 305 304 296 303 307 296 310 280 199 262 299 297 249 192 171 188 191 181 185 196 0 359 355 346 340 339 336
111 90 78 64 68 72 66 29 23 22 8 3 354 358 68 164 175 168 228 226 54 2 346 359 2 3 5 9 11 12 208 356 360 16 16 18 24 26 23 19 36 47 30 308 14 72 8 7 2 358 4 13 9 356 2 350 316 327 347 326 306 304 302 294 300 288 274 302 285 217 229 277 303 309 168 172 192 187 184 202 9 3 352 350 347 344 339 335
125 77 65 52 51 43 24 4 7 3 353 343 335 351 356 251 174 181 250 253 23 348 345 358 347 0 6 19 27 45 38 358 355 11 16 21 19 20 50 28 6 27 21 271 358 59 6 11 20 6 9 15 354 342 345 322 301 325 324 307 296 294 288 287 288 268 278 301 287 288 313 288 299 311 168 168 199 204 193 200 34 2 351 353 351 345 340 335
212 347 355 3 360 352 340 335 345 338 333 335 335 347 345 184 172 216 261 151 17 351 355 5 349 358 3 14 37 41 30 15 7 359 12 24 19 19 76 38 7 322 351 18 51 67 48 17 351 352 14 7 333 331 326 291 298 316 310 299 291 280 267 268 268 265 286 286 289 342 346 318 302 306 292 189 211 219 183 163 17 3 358 356 351 343 340 337
271 297 314 322 317 323 318 312 321 316 315 324 327 358 31 89 183 234 338 40 0 357 345 5 5 350 357 9 40 26 19 25 357 346 7 21 19 25 54 215 323 257 260 73 81 107 131 199 250 15 22 345 314 310 288 254 286 304 311 312 308 298 272 248 246 273 295 289 308 336 335 326 307 300 307 288 146 77 96 34 4 5 359 351 346 341 336 333
289 297 304 306 302 307 304 298 305 303 308 298 257 296 27 75 292 260 56 21 320 354 346 7 17 355 3 22 21 2 7 25 0 354 13 18 18 22 24 346 332 292 241 58 73 130 167 198 185 126 20 343 320 306 263 223 272 304 328 331 325 326 316 247 267 308 310 306 321 330 328 323 299 295 333 101 109 87 65 15 1 352 346 341 340 341 337 334
302 300 298 297 294 295 287 282 289 283 289 269 228 261 263 221 29 35 41 327 299 5 12 12 5 352 353 354 352 353 350 13 9 10 16 13 27 29 32 26 347 329 14 11 352 332 179 165 117 143 324 354 336 322 330 223 288 332 347 342 341 344 347 333 328 338 319 303 312 323 323 314 290 308 27 115 129 100 66 18 360 344 340 339 339 341 341 339
306 306 304 300 292 286 266 255 261 247 260 240 200 238 264 177 54 51 343 338 352 23 3 304 324 326 312 317 359 353 314 3 6 2 355 15 48 66 65 46 7 330 328 343 337 339 4 137 112 147 112 9 346 334 355 334 329 352 353 353 357 347 340 330 323 326 310 299 305 314 313 298 291 317 46 100 102 100 77 13 358 346 342 340 339 340 342 340
332 341 345 342 334 305 217 206 211 220 185 154 187 227 39 69 72 108 330 358 12 359 341 311 316 309 286 1 15 346 321 81 16 2 3 19 45 52 47 35 15 353 308 317 349 348 329 323 59 17 3 11 5 10 352 317 314 346 355 353 353 343 327 309 314 320 307 300 305 308 302 300 315 342 77 87 97 115 42 2 354 348 345 341 339 340 340 336
14 11 18 41 68 93 115 157 181 165 146 150 184 40 67 77 124 184 18 9 4 339 335 341 303 297 315 110 104 23 14 43 17 19 35 35 44 31 7 9 10 3 324 323 18 344 319 320 60 56 16 2 8 75 267 306 312 336 337 344 347 336 310 285 290 302 302 298 302 305 295 303 319 15 93 94 110 31 358 352 348 347 345 339 337 337 334 330
51 45 50 84 101 100 102 123 139 135 149 192 81 61 59 56 39 29 20 338 340 330 309 299 304 328 8 17 59 42 21 300 329 345 83 73 59 41 15 5 7 359 344 341 358 355 326 315 336 23 148 42 24 168 274 328 329 326 326 344 331 307 281 287 295 300 303 295 293 303 299 303 314 335 117 132 304 340 353 346 341 341 340 336 335 333 330 329
63 62 64 81 94 94 93 107 128 124 98 66 75 70 43 33 31 20 29 351 327 313 303 326 32 354 353 348 10 8 343 311 334 329 67 83 62 36 12 16 38 2 353 337 319 47 333 295 297 290 289 60 95 144 80 78 313 331 344 345 324 281 227 294 309 309 308 297 292 302 303 307 315 319 358 335 325 336 344 340 339 340 338 334 332 330 328 328
60 59 57 68 87 88 73 78 114 112 87 74 80 84 52 43 40 26 37 359 311 289 320 12 38 349 341 343 358 352 334 340 349 342 16 26 17 30 7 8 43 6 354 310 294 23 323 295 298 165 322 359 143 193 327 156 348 5 351 338 353 320 303 324 319 314 309 302 299 305 306 307 312 322 341 335 330 336 337 337 342 340 336 333 330 329 328 326
52 50 46 54 70 60 46 89 114 103 86 73 86 95 69 69 68 45 25 348 312 299 354 33 21 337 8 342 343 353 343 350 349 344 10 3 7 48 32 5 340 349 350 308 301 349 304 286 327 125 314 315 256 288 337 348 54 117 205 304 50 346 308 313 309 299 301 302 303 310 309 304 319 332 340 334 335 340 338 338 341 337 334 332 328 327 327 326
57 51 47 66 76 69 75 99 93 78 69 64 77 83 55 89 96 39 17 28 1 343 12 31 334 341 8 341 343 5 345 330 335 348 18 9 5 60 48 21 331 331 331 291 273 340 309 264 294 315 319 318 319 13 346 334 346 339 309 335 14 337 311 308 296 283 298 303 302 309 303 300 326 332 328 335 339 339 336 335 337 335 331 329 326 326 326 325
78 65 50 77 84 74 76 80 70 53 56 78 69 70 63 85 102 55 32 42 27 16 14 354 339 349 343 339 22 4 331 318 338 359 23 22 24 48 35 16 340 326 324 296 255 357 347 288 296 315 323 327 352 59 27 341 333 322 324 343 11 351 336 325 309 297 306 301 298 303 297 297 331 342 333 338 336 333 334 335 334 331 328 326 326 326 325 324
79 66 60 68 65 88 84 72 49 19 67 78 62 72 77 75 88 72 41 23 8 3 343 324 347 351 339 344 349 347 339 328 353 12 26 34 36 27 2 353 339 317 313 320 329 4 350 290 296 313 318 326 15 87 87 34 295 268 218 117 13 355 355 333 311 305 304 296 294 296 288 288 329 353 340 335 330 329 334 336 331 327 325 325 326 325 325 324
69 56 57 58 64 91 90 79 53 51 65 73 66 68 69 59 69 89 65 27 2 308 307 357 4 340 15 5 325 343 360 343 350 18 33 46 51 31 359 356 348 328 320 332 343 353 339 301 319 322 316 329 79 110 120 161 251 274 240 75 46 38 356 302 286 292 294 291 298 300 285 286 324 342 332 328 328 330 334 334 329 325 325 326 326 325 324 324
72 58 48 42 79 105 82 71 102 92 88 106 90 78 78 66 50 55 69 25 359 318 320 16 34 339 9 1 304 336 0 355 30 41 30 28 52 29 5 15 21 7 10 12 341 342 341 348 349 338 334 342 349 8 10 285 302 322 324 343 53 80 343 288 275 285 287 292 307 305 288 292 317 330 328 328 329 332 334 331 328 326 325 326 326 325 323 322
74 59 52 54 81 101 86 88 111 118 127 119 103 88 85 80 50 41 63 47 19 2 332 6 19 315 317 320 266 307 2 350 16 43 34 35 83 77 8 25 38 27 27 357 321 326 326 344 11 1 342 334 328 326 326 320 318 315 311 319 342 74 38 316 302 300 299 305 309 295 285 299 313 324 327 329 334 337 333 329 327 326 326 326 325 324 322 321
73 65 51 54 71 81 84 90 95 112 135 132 109 83 50 99 75 44 59 64 37 19 347 354 336 274 262 319 288 290 20 12 49 45 32 30 81 113 8 25 35 25 20 1 340 320 283 323 39 13 315 293 298 295 296 306 308 302 305 313 320 35 103 314 306 303 308 311 302 288 296 306 314 323 329 332 336 335 331 329 328 326 325 324 324 322 321 320
78 63 29 55 71 72 78 78 65 84 122 130 106 86 56 95 100 64 69 55 20 4 319 19 14 351 347 346 330 341 353 347 152 111 58 338 54 119 50 28 26 3 6 8 359 343 275 315 45 354 290 272 278 280 285 298 299 298 304 308 314 336 357 298 298 305 314 314 302 303 313 314 316 323 330 335 336 332 330 329 327 325 322 322 322 322 321 321
85 90 88 109 91 56 67 64 48 65 74 57 95 105 73 93 86 35 60 40 312 320 265 132 51 35 12 342 326 332 340 334 168 142 135 356 6 158 176 94 35 12 6 10 11 5 277 334 38 315 288 286 281 281 295 305 297 295 301 301 310 328 329 311 303 306 312 306 299 309 315 315 316 324 332 336 332 330 329 326 324 323 320 320 321 322 322 322
114 116 99 93 90 80 87 84 76 81 69 52 89 79 46 81 78 41 343 272 215 44 320 353 39 35 28 312 314 338 348 331 302 85 105 85 312 217 168 164 78 28 18 8 11 9 307 344 19 311 294 293 290 302 316 314 302 294 294 299 316 321 324 320 312 312 311 300 298 309 313 312 317 327 333 332 328 327 326 324 323 322 321 321 322 322 321 323
127 129 123 111 95 77 76 77 60 95 79 37 74 63 22 70 88 100 331 322 344 41 352 349 21 39 182 294 324 55 328 298 291 312 50 91 282 339 39 33 20 21 20 9 350 355 352 352 355 311 297 298 314 326 322 317 311 299 290 352 334 323 328 331 324 321 318 309 307 312 312 311 322 331 329 328 327 326 325 325 325 324 322 321 321 321 322 325
118 126 128 118 95 39 46 53 316 265 77 23 42 74 23 64 62 53 119 30 342 18 358 339 341 217 189 205 24 27 327 310 311 344 35 58 38 36 45 26 358 347 11 14 327 348 360 343 324 327 309 312 334 332 321 317 316 294 288 354 345 338 335 330 326 325 321 316 317 318 317 317 329 331 327 326 327 327 326 326 325 323 321 319 319 322 324 326
119 128 128 115 92 32 22 13 315 31 65 23 36 66 51 80 102 253 199 184 216 282 326 319 309 286 200 151 21 343 320 331 24 54 71 86 78 72 72 59 47 28 11 14 331 358 3 333 331 349 314 306 331 330 315 308 309 230 75 10 359 345 331 323 323 325 322 320 320 320 323 328 329 328 326 326 328 328 326 324 322 319 317 316 318 323 324 324